User: anonymous   Login
Location: Unspecified
(0.0000°N, 0.0000°E)
Time: 08:11:05
(UTC+00:00)
Language:

Snapshot - Orbit

View from above orbital plane
View from above orbital plane
View from above satellite
View from above satellite

Ground track
Ground track

The orbit data is extracted from the following two-line orbital elements,

1 01314U 65027A   16337.85991544  .00000044  00000-0  13620-3 0  9997
2 01314  90.3084 279.2530 0030868  15.1805  37.3929 12.91747980181717
Epoch (UTC): 02 December 2016 20:38:16
Eccentricity: 0.0030868
inclination: 90.3084°
perigee height: 1271 km
apogee height: 1318 km
right ascension of ascending node: 279.2530°
argument of perigee: 15.1805°
revolutions per day: 12.91747980
mean anomaly at epoch: 37.3929°
orbit number at epoch: 18171

The dashed part of the orbit path shows where the satellite is in the earth's shadow,  

DLR